Regional Weather Roundup
Issued by NWS

Home | Current Version | Previous Version | Graphics & Text | Print | Product List | Glossary On
Versions: 1 2 3 4 5 6 7 8 9 10 11 12 13 14 15 16 17 18 19 20 21 22 23 24 25 26 27 28 29 30 31 32 33 34 35 36 37 38 39 40 41 42 43 44 45 46 47 48 49 50
834
ASUS45 KPSR 071910
RWRAZ

ARIZONA HOURLY REGIONAL WEATHER ROUNDUP
NATIONAL WEATHER SERVICE PHOENIX AZ
1200 PM MST WED DEC 07 2016

NOTE: FAIR INDICATES FEW OR NO CLOUDS BELOW 12,000 FEET WITH NO
SIGNIFICANT WEATHER AND/OR OBSTRUCTIONS TO VISIBILITY.

AZZ001>003-036-072000-
NORTHWEST ARIZONA

CITY           SKY/WX    TMP DP  RH WIND       PRES   REMARKS
BULLHEAD CITY  MOSUNNY   59   9  13 N28G37    30.10F
KINGMAN        SUNNY     50  12  21 N12       30.10F
$$

AZZ004>008-015-016-018-072000-
NORTH CENTRAL ARIZONA

CITY           SKY/WX    TMP DP  RH WIND       PRES   REMARKS
GRAND CANYON   MOSUNNY   39  26  59 S8        30.08F WCI  33
PRESCOTT       PTSUNNY   47  34  60 N8        30.06F
FLAGSTAFF      MOSUNNY   38  26  62 MISG      30.06F
PAYSON         PTSUNNY   46  32  57 CALM      30.08F
PAGE           SUNNY     42   7  23 E7        30.12F
$$

AZZ009>014-017-072000-
NORTHEAST ARIZONA

CITY           SKY/WX    TMP DP  RH WIND       PRES   REMARKS
WINSLOW        MOSUNNY   47  28  47 N7        30.07F
SAINT JOHNS    PTSUNNY   47  31  53 NW13      30.04F
WINDOW ROCK    PTSUNNY   40  20  44 NW9       30.05F WCI  34
SHOW LOW       PTSUNNY   45  27  49 SW9       30.07F
$$

AZZ023-072000-
GREATER PHOENIX AREA

CITY           SKY/WX    TMP DP  RH WIND       PRES   REMARKS
PHOENIX        PTSUNNY   63  45  51 CALM      30.01F
BUCKEYE        MOSUNNY   61  46  59 SE5       30.04F
GLENDALE       PTSUNNY   63  46  55 SE5       30.04F
LUKE AFB       PTSUNNY   62  45  55 CALM      30.01F
DEER VALLEY    PTSUNNY   60  45  57 VRB3      30.02F
SCOTTSDALE     PTSUNNY   61  45  55 CALM      30.03F
MESA-FALCON    PTSUNNY  N/A N/A N/A S6        29.99
MESA-GATEWAY   MOSUNNY   63  43  48 CALM      30.03F
CHANDLER       PTSUNNY   64  45  48 S7        30.03F
$$

AZZ027-028-072000-
SOUTHWEST MARICOPA COUNTY AND PINAL COUNTY

CITY           SKY/WX    TMP DP  RH WIND       PRES   REMARKS
CASA GRANDE    NOT AVBL
GILA BEND      MOSUNNY   63  48  58 NW3       30.02F
$$

AZZ503-504-507>509-072000-
SOUTHEAST ARIZONA

CITY           SKY/WX    TMP DP  RH WIND       PRES   REMARKS
TUCSON         SUNNY     63  40  42 VRB3      30.05F
DAVIS-MONTHAN  SUNNY     61  41  47 W6        30.03F
RYAN FIELD     SUNNY     63  41  45 NW6       30.05F
NOGALES        MOSUNNY   61  34  36 S7        30.04F
SIERRA VISTA   PTSUNNY   58  30  34 VRB3      30.06F
DOUGLAS        CLOUDY    57  35  43 CALM      30.04F
SAFFORD        SUNNY     59  38  45 W7        30.02F
$$

AZZ020-021-025-026-031-072000-
SOUTHWEST ARIZONA

CITY           SKY/WX    TMP DP  RH WIND       PRES   REMARKS
YUMA           PTSUNNY   66  25  21 N20G25    30.06S
$$

CAZ031-033-041-043-047-048-061-072000-
SOUTHERN CALIFORNIA

CITY           SKY/WX    TMP DP  RH WIND       PRES   REMARKS
DOWNTOWN L.A.  MOSUNNY   59  49  69 CALM      30.10R
L.A. AIRPORT   PTSUNNY   61  50  67 E6        30.11F
SAN DIEGO      PTSUNNY   61  48  62 S8        30.12F
BURBANK        MOSUNNY   58  43  57 N3        30.10S
ONTARIO        PTSUNNY   56  44  64 S6        30.10F
RIVERSIDE      PTSUNNY   59  37  44 E8        30.10F
PALM SPRINGS   CLOUDY    63  27  25 NW8       30.10F
EL CENTRO NAS  PTSUNNY   65  40  39 N12       30.09S
IMPERIAL       MOSUNNY   65  41  41 MISG      30.06S
BLYTHE         CLOUDY    61  15  16 N18       30.09S
NEEDLES        PTSUNNY   62   9  12 N24G32    30.10F
$$

NVZ020-UTZ003-072000-
SOUTHERN NEVADA-UTAH

CITY           SKY/WX    TMP DP  RH WIND       PRES   REMARKS
LAS VEGAS      MOSUNNY   51   7  16 N7        30.17F
SALT LAKE CITY PTSUNNY   27  13  55 MISG      30.28S
$$

NMZ009-TXZ055-072000-
NEW MEXICO-WEST TEXAS

CITY           SKY/WX    TMP DP  RH WIND       PRES   REMARKS
ALBUQUERQUE    MOSUNNY   44  21  40 N13       30.04F
EL PASO        CLOUDY    56  32  40 W14       30.02F
$$


........................KEY........................
SKY/WX - SKY CONDITION/WEATHER
TMP    - TEMPERATURE IN FAHRENHEIT
DP     - DEW POINT IN FAHRENHEIT
RH     - RELATIVE HUMIDITY IN PERCENT
WIND   - DIRECTION AND SPEED IN MILES PER HOUR (MPH)
VRB    - VARIABLE WIND DIRECTION
PRES   - MEAN SEA LEVEL PRESSURE IN INCHES OF MERCURY
         F - FALLING PRESSURE   R - RISING PRESSURE
         S - STEADY PRESSURE
VSB    - VISIBILITY IN MILES
HX     - HEAT INDEX IN FAHRENHEIT
WCI    - WIND CHILL INDEX IN FAHRENHEIT
TC     - TEMPERATURE IN CELSIUS WHICH IS ALSO KNOWN AS
         TEMPERATURE IN CENTIGRADE
AFB    - AIR FORCE BASE
         LUKE AFB IS LUKE AIR FORCE BASE
         DAVIS-MONTHAN IS DAVIS-MONTHAN AIR FORCE BASE
NAS    - NAVAL AIR STATION
         EL CENTRO NAS IS EL CENTRO NAVAL AIR STATION
N/A    - NOT AVAILABLE





USA.gov is the U.S. government's official web portal to all federal, state and local government web resources and services.